Location: Unspecified
(50.1700°N, 6.8600°E)
Time: 00:50:16
(UTC+00:00)

N. Korean satellite - Pass Details

Date: 26 March 2019
Orbit: 457 x 508 km, 97.2° (Epoch: 22 April)

Event Time Altitude Azimuth Distance (km) Brightness Sun altitude
Rises 04:32:12 0° 33° (NNE) 2,537 11.0 -8.9°
Reaches altitude 10° 04:35:35 10° 68° (ENE) 1,664 10.9 -8.4°
Maximum altitude 04:36:49 11° 88° (E) 1,578 10.7 -8.2°
Drops below altitude 10° 04:38:03 10° 109° (ESE) 1,669 10.3 -8.0°
Sets 04:41:27 0° 144° (SE) 2,557 10.6 -7.4°
